Weather History for CYUX - September, 2012

Change the Weather History Date:

Saturday, September 8, 2012

  Actual Average Record
Temperature  
Mean Temperature 36 °F -  
Max Temperature 39 °F 36 °F 51 °F (2005)
Min Temperature 33 °F 31 °F 26 °F (2013)
Degree Days  
Heating Degree Days 29    
Moisture  
Dew Point 35 °F    
Average Humidity 95    
Maximum Humidity 100    
Minimum Humidity 87    
Precipitation  
Precipitation 0.00 in - - ()
Sea Level Pressure  
Sea Level Pressure 29.74 in    
Wind  
Wind Speed 15 mph ()    
Max Wind Speed 24 mph    
Max Gust Speed 29 mph    
Visibility 6.6 miles    
Events Rain    
Averages and records for this station are not official NWS values.
T = Trace of Precipitation, MM = Missing Value Source: Averaged Metar Reports

Daily Weather History Graph

Daily Weather History Graph

Search for Another Location

Airport or City:

Trip Planner

Search our weather history database for the weather conditions in past years. The results will help you decide how hot, cold, wet, or windy it might be!

Date:

Astronomy

Sep. 08, 2012 Rise Set
Actual Time 6:15 AM EDT 8:26 PM EDT
Civil Twilight 5:12 AM EDT 9:29 PM EDT
Nautical Twilight 3:40 AM EDT 10:58 PM EDT
Astronomical Twilight Sun does not rise 12:49 AM EDT
Moon 8:02 PM EDT (9/8) 7:07 PM EDT (9/8)
Length of Visible Light 16h 16m
Length of Day
14h 10m
Waning Gibbous, 49% of the Moon is Illuminated
Sep 8
Waning Gibbous
Sep 15
New
Sep 22
First Quarter
Sep 29
Full
Oct 8
Last Quarter

Hourly Weather History & Observations

Time (EDT) Temp. Windchill Dew Point Humidity Pressure Visibility Wind Dir Wind Speed Gust Speed Precip Events Conditions
12:00 AM 33.8 °F 22.2 °F 30.2 °F 87% 29.81 in 9.0 mi South 20.7 mph 27.6 mph N/A   Mostly Cloudy
1:00 AM 33.8 °F 21.6 °F 32.0 °F 93% 29.79 in 9.0 mi South 23.0 mph - N/A   Overcast
2:00 AM 33.8 °F 21.9 °F 32.0 °F 93% 29.78 in 9.0 mi South 21.9 mph - N/A   Overcast
3:00 AM 33.8 °F 21.3 °F 32.0 °F 93% 29.76 in 9.0 mi South 24.2 mph - N/A   Overcast
4:00 AM 33.8 °F 21.9 °F 33.8 °F 100% 29.76 in 9.0 mi South 21.9 mph 28.8 mph N/A   Mostly Cloudy
5:00 AM 35.6 °F 25.5 °F 33.8 °F 93% 29.76 in 9.0 mi South 17.3 mph - N/A   Overcast
5:50 AM 35.6 °F 26.2 °F 33.8 °F 93% 29.76 in 9.0 mi South 15.0 mph - N/A   Overcast
6:00 AM 35.6 °F 25.5 °F 33.8 °F 93% 29.76 in 8.0 mi South 17.3 mph - N/A   Overcast
6:07 AM 35.6 °F 25.9 °F 33.8 °F 93% 29.75 in 5.0 mi South 16.1 mph - N/A   Overcast
6:24 AM 35.6 °F 25.2 °F 35.6 °F 100% 29.75 in 6.0 mi South 18.4 mph - N/A   Overcast
6:26 AM 35.6 °F 25.5 °F 35.6 °F 100% 29.75 in 5.0 mi South 17.3 mph - N/A   Overcast
6:30 AM 35.6 °F 25.5 °F 35.6 °F 100% 29.76 in 2.2 mi South 17.3 mph - N/A   Overcast
6:31 AM 35.6 °F 25.9 °F 35.6 °F 100% 29.76 in 1.8 mi South 16.1 mph - N/A   Overcast
6:33 AM 35.6 °F 26.6 °F 35.6 °F 100% 29.76 in 1.0 mi South 13.8 mph 21.9 mph N/A   Overcast
6:35 AM 35.6 °F 25.9 °F 35.6 °F 100% 29.76 in 0.8 mi South 16.1 mph - N/A Rain Light Rain
6:49 AM 33.8 °F 22.5 °F 33.8 °F 100% 29.75 in 1.2 mi South 19.6 mph - N/A Rain Light Rain
6:51 AM 33.8 °F 22.8 °F 33.8 °F 100% 29.75 in 1.2 mi South 18.4 mph - N/A   Overcast
6:56 AM 33.8 °F 22.8 °F 33.8 °F 100% 29.75 in 0.8 mi South 18.4 mph - N/A Rain Light Rain
7:00 AM 33.8 °F 22.8 °F 33.8 °F 100% 29.75 in 0.8 mi South 18.4 mph - N/A Rain Light Rain
7:06 AM 33.8 °F 22.8 °F 33.8 °F 100% 29.75 in 1.2 mi South 18.4 mph - N/A Rain Light Rain
7:07 AM 33.8 °F 22.8 °F 33.8 °F 100% 29.75 in 1.0 mi South 18.4 mph - N/A Rain Light Rain
7:43 AM 33.8 °F 22.8 °F 33.8 °F 100% 29.75 in 1.5 mi South 18.4 mph - N/A Rain Light Rain
7:45 AM 33.8 °F 22.8 °F 33.8 °F 100% 29.75 in 2.2 mi South 18.4 mph - N/A Rain Light Rain
7:46 AM 33.8 °F 23.2 °F 33.8 °F 100% 29.75 in 3.0 mi South 17.3 mph - N/A Rain Light Rain
7:48 AM 33.8 °F 22.5 °F 33.8 °F 100% 29.75 in 4.0 mi South 19.6 mph - N/A   Overcast
7:53 AM 33.8 °F 22.5 °F 33.8 °F 100% 29.74 in 6.0 mi South 19.6 mph - N/A   Overcast
8:00 AM 33.8 °F 22.2 °F 33.8 °F 100% 29.74 in 2.0 mi South 20.7 mph - N/A   Mostly Cloudy
8:28 AM 35.6 °F 25.5 °F 33.8 °F 93% 29.74 in 6.0 mi South 17.3 mph 24.2 mph N/A   Mostly Cloudy
9:00 AM 35.6 °F 24.5 °F 33.8 °F 93% 29.73 in 15.0 mi South 20.7 mph - N/A   Mostly Cloudy
10:00 AM 35.6 °F 24.8 °F 35.6 °F 100% 29.73 in 15.0 mi South 19.6 mph - N/A   Mostly Cloudy
11:00 AM 37.4 °F 28.5 °F 35.6 °F 93% 29.73 in 15.0 mi South 15.0 mph - N/A   Mostly Cloudy
12:00 PM 37.4 °F 27.8 °F 35.6 °F 93% 29.73 in 15.0 mi South 17.3 mph - N/A   Overcast
1:00 PM 39.2 °F 29.0 °F 35.6 °F 87% 29.72 in 15.0 mi South 21.9 mph - N/A   Overcast
2:00 PM 39.2 °F 30.8 °F 35.6 °F 87% 29.73 in 15.0 mi SSW 15.0 mph - N/A   Overcast
3:00 PM 39.2 °F 30.5 °F 35.6 °F 87% 29.72 in 15.0 mi SSW 16.1 mph - N/A   Overcast
4:00 PM 39.2 °F 32.0 °F 35.6 °F 87% 29.73 in 15.0 mi SSW 11.5 mph - N/A   Overcast
5:00 PM 39.2 °F 32.0 °F 35.6 °F 87% 29.73 in 15.0 mi SSW 11.5 mph - N/A   Overcast
6:00 PM 39.2 °F 32.0 °F 35.6 °F 87% 29.73 in - SSW 11.5 mph - N/A   Overcast
7:00 PM 39.2 °F 32.0 °F 35.6 °F 87% 29.74 in 15.0 mi SSW 11.5 mph - N/A   Overcast
7:51 PM 39.2 °F 32.0 °F 35.6 °F 87% 29.74 in 15.0 mi SSW 11.5 mph - N/A   Overcast
8:00 PM 39.2 °F 30.8 °F 35.6 °F 87% 29.74 in 14.0 mi SSW 15.0 mph - N/A   Overcast
8:24 PM 39.2 °F 31.6 °F 35.6 °F 87% 29.75 in 9.0 mi SSW 12.7 mph - N/A Rain Light Rain
8:35 PM 39.2 °F 32.5 °F 35.6 °F 87% 29.75 in 9.0 mi SSW 10.4 mph - N/A Rain Light Rain
9:00 PM 37.4 °F 29.3 °F 35.6 °F 93% 29.74 in 9.0 mi SSW 12.7 mph - N/A Rain Light Rain
9:22 PM 37.4 °F 30.3 °F 35.6 °F 93% 29.74 in 9.0 mi SSW 10.4 mph - N/A Rain Light Rain
9:38 PM 37.4 °F 30.3 °F 35.6 °F 93% 29.74 in 9.0 mi SSW 10.4 mph - N/A   Overcast
10:00 PM 37.4 °F 29.8 °F 35.6 °F 93% 29.74 in 9.0 mi SW 11.5 mph - N/A   Overcast
10:34 PM 37.4 °F 29.8 °F 35.6 °F 93% 29.73 in 9.0 mi SW 11.5 mph - N/A   Overcast
10:54 PM 37.4 °F 29.8 °F 35.6 °F 93% 29.73 in 9.0 mi WSW 11.5 mph - N/A   Overcast
10:58 PM 37.4 °F 30.8 °F 35.6 °F 93% 29.73 in 9.0 mi WSW 9.2 mph - N/A   Overcast
11:00 PM 37.4 °F 30.3 °F 35.6 °F 93% 29.73 in 9.0 mi WSW 10.4 mph - N/A   Overcast
11:08 PM 37.4 °F 31.4 °F 35.6 °F 93% 29.73 in 6.0 mi West 8.1 mph - N/A   Overcast
11:11 PM 37.4 °F 31.4 °F 35.6 °F 93% 29.73 in 5.0 mi West 8.1 mph - N/A   Overcast
11:17 PM 37.4 °F 30.8 °F 35.6 °F 93% 29.73 in 2.2 mi West 9.2 mph - N/A   Overcast
11:18 PM 37.4 °F 31.4 °F 35.6 °F 93% 29.73 in 2.0 mi West 8.1 mph - N/A   Overcast
11:19 PM 37.4 °F 31.4 °F 35.6 °F 93% 29.73 in 1.8 mi West 8.1 mph - N/A Rain Light Rain
11:23 PM 37.4 °F 31.4 °F 35.6 °F 93% 29.73 in 1.2 mi West 8.1 mph - N/A Rain Light Rain
11:24 PM 37.4 °F 32.1 °F 35.6 °F 93% 29.73 in 1.2 mi West 6.9 mph - N/A Rain Light Rain
11:26 PM 37.4 °F 32.8 °F 37.4 °F 100% 29.73 in 1.2 mi West 5.8 mph - N/A Rain Light Rain
11:29 PM 37.4 °F 32.8 °F 37.4 °F 100% 29.73 in 1.8 mi West 5.8 mph - N/A Rain Light Rain
11:30 PM 37.4 °F 32.8 °F 37.4 °F 100% 29.73 in 2.2 mi West 5.8 mph - N/A Rain Light Rain
11:32 PM 37.4 °F 32.8 °F 35.6 °F 93% 29.73 in 3.0 mi West 5.8 mph - N/A Rain Light Rain
11:35 PM 37.4 °F 32.8 °F 35.6 °F 93% 29.73 in 6.0 mi West 5.8 mph - N/A Rain Light Rain
11:37 PM 37.4 °F 32.1 °F 35.6 °F 93% 29.73 in 6.0 mi West 6.9 mph - N/A   Overcast
11:38 PM 37.4 °F 32.8 °F 35.6 °F 93% 29.73 in 5.0 mi West 5.8 mph - N/A   Overcast
11:41 PM 37.4 °F 32.8 °F 35.6 °F 93% 29.73 in 4.0 mi West 5.8 mph - N/A   Overcast
11:45 PM 37.4 °F 32.8 °F 35.6 °F 93% 29.73 in 2.5 mi West 5.8 mph - N/A   Overcast
11:49 PM 37.4 °F 33.8 °F 35.6 °F 93% 29.73 in 2.5 mi WSW 4.6 mph - N/A   Overcast
11:54 PM 37.4 °F 33.8 °F 37.4 °F 100% 29.73 in 3.0 mi WSW 4.6 mph - N/A   Overcast
11:55 PM 37.4 °F 33.8 °F 37.4 °F 100% 29.73 in 4.0 mi SW 4.6 mph - N/A   Overcast
11:57 PM 37.4 °F 33.8 °F 37.4 °F 100% 29.73 in 7.0 mi WSW 4.6 mph - N/A   Overcast